Location: Unspecified
(43.4354°N, 0.0000°E)
Time: 20:20:01
(UTC+00:00)

Vanguard 2 Rocket - Pass Details

Date: 19 June 2019
Orbit: 553 x 3327 km, 32.9° (Epoch: 21 August)

Event Time Altitude Azimuth Distance (km) Brightness Sun altitude
Rises 04:51:38 0° 277° (W) 6,582 10.8 4.2°
Reaches altitude 10° 04:56:36 10° 267° (W) 5,862 10.5 5.0°
Maximum altitude 05:11:13 29° 218° (SW) 4,857 10.2 7.4°
Drops below altitude 10° 05:26:16 10° 167° (SSE) 5,971 11.0 9.9°
Sets 05:31:31 0° 157° (SSE) 6,710 11.3 10.8°
